| time (UTC) | temp C | wind direction | speed KPH | gust KPH | rain 1hr cm | rain 24hr cm | rain mn cm | humidity % | barometer mb |
| 20260506025003 | 1 | 0 | 0.0 | 0.0 | 0.00 | 0.00 | 0.00 | 74 | 1012.1 |
| 20260506024217 | 1 | 0 | 0.0 | 0.0 | 0.00 | 0.00 | 0.00 | 74 | 1012.2 |
| 20260506023217 | 1 | 0 | 0.0 | 0.0 | 0.00 | 0.00 | 0.00 | 73 | 1012.4 |
| 20260506022003 | 2 | 0 | 0.0 | 0.0 | 0.00 | 0.00 | 0.00 | 73 | 1012.3 |
| 20260506021003 | 2 | 0 | 0.0 | 0.0 | 0.00 | 0.00 | 0.00 | 73 | 1012.3 |
| 20260506020003 | 2 | 0 | 0.0 | 0.0 | 0.00 | 0.00 | 0.00 | 73 | 1012.3 |
| 20260506015003 | 2 | 0 | 0.0 | 0.0 | 0.00 | 0.00 | 0.00 | 72 | 1012.2 |
| 20260506014003 | 2 | 0 | 0.0 | 0.0 | 0.00 | 0.00 | 0.00 | 72 | 1012.2 |
| 20260506013003 | 2 | 0 | 0.0 | 0.0 | 0.00 | 0.00 | 0.00 | 71 | 1012.2 |
| 20260506012003 | 3 | 0 | 0.0 | 0.0 | 0.00 | 0.00 | 0.00 | 70 | 1012.2 |
| 20260506011216 | 3 | 0 | 0.0 | 0.0 | 0.00 | 0.00 | 0.00 | 70 | 1012.2 |
| 20260506010003 | 3 | 0 | 0.0 | 0.0 | 0.00 | 0.00 | 0.00 | 68 | 1012.1 |
| 20260506005003 | 4 | 0 | 0.0 | 0.0 | 0.00 | 0.00 | 0.00 | 68 | 1012.0 |
| 20260506004003 | 4 | 0 | 0.0 | 0.0 | 0.00 | 0.00 | 0.00 | 68 | 1012.1 |
| 20260506003003 | 4 | 0 | 0.0 | 0.0 | 0.00 | 0.00 | 0.00 | 68 | 1012.1 |
| 20260506002003 | 5 | 0 | 0.0 | 0.0 | 0.00 | 0.00 | 0.00 | 68 | 1012.1 |
| 20260506001003 | 5 | 0 | 0.0 | 0.0 | 0.00 | 0.00 | 0.00 | 67 | 1012.1 |
| 20260506000003 | 5 | 0 | 0.0 | 0.0 | 0.00 | 0.00 | 0.00 | 65 | 1012.0 |
| 20260505235003 | 6 | 0 | 0.0 | 0.0 | 0.00 | 0.00 | 0.00 | 64 | 1012.1 |
| 20260505234003 | 6 | 0 | 0.0 | 0.0 | 0.00 | 0.00 | 0.00 | 62 | 1012.2 |
| 20260505233003 | 7 | 0 | 0.0 | 0.0 | 0.00 | 0.00 | 0.00 | 60 | 1012.2 |
| 20260505232003 | 7 | 0 | 0.0 | 0.0 | 0.00 | 0.00 | 0.00 | 58 | 1012.2 |
| 20260505231003 | 8 | 0 | 0.0 | 0.0 | 0.00 | 0.00 | 0.00 | 55 | 1012.1 |
| 20260505230003 | 8 | 0 | 0.0 | 0.0 | 0.00 | 0.00 | 0.00 | 52 | 1012.1 |
| 20260505225003 | 8 | 0 | 0.0 | 0.0 | 0.00 | 0.00 | 0.00 | 51 | 1012.1 |
| 20260505224003 | 8 | 0 | 0.0 | 0.0 | 0.00 | 0.00 | 0.00 | 50 | 1012.2 |
| 20260505223003 | 8 | 338 | 16.1 | 16.1 | 0.00 | 0.00 | 0.00 | 50 | 1012.2 |
| 20260505222217 | 8 | 343 | 19.3 | 19.3 | 0.00 | 0.00 | 0.00 | 50 | 1012.2 |
| 20260505221217 | 8 | 4 | 9.7 | 9.7 | 0.00 | 0.00 | 0.00 | 50 | 1012.2 |
| 20260505220003 | 8 | 352 | 0.0 | 12.9 | 0.00 | 0.00 | 0.00 | 51 | 1012.2 |
| 20260505215003 | 8 | 349 | 0.0 | 1.6 | 0.00 | 0.00 | 0.00 | 53 | 1012.2 |
| 20260505214003 | 8 | 348 | 1.6 | 16.1 | 0.00 | 0.00 | 0.00 | 52 | 1012.2 |
| 20260505213003 | 8 | 346 | 1.6 | 16.1 | 0.00 | 0.00 | 0.00 | 55 | 1012.2 |
| 20260505212217 | 8 | 357 | 1.6 | 16.1 | 0.00 | 0.00 | 0.00 | 58 | 1012.2 |
| 20260505211003 | 8 | 349 | 1.6 | 6.4 | 0.00 | 0.00 | 0.00 | 59 | 1012.1 |
| 20260505210003 | 8 | 345 | 1.6 | 9.7 | 0.00 | 0.00 | 0.00 | 59 | 1012.2 |
| 20260505205003 | 8 | 360 | 0.0 | 11.3 | 0.00 | 0.00 | 0.00 | 61 | 1012.1 |
| 20260505204003 | 8 | 1 | 0.0 | 1.6 | 0.00 | 0.00 | 0.00 | 63 | 1012.1 |
| 20260505203003 | 8 | 0 | 0.0 | 0.0 | 0.00 | 0.00 | 0.00 | 65 | 1012.1 |
| 20260505202003 | 8 | 0 | 0.0 | 0.0 | 0.00 | 0.00 | 0.00 | 66 | 1012.1 |
| 20260505201003 | 8 | 360 | 0.0 | 1.6 | 0.00 | 0.00 | 0.00 | 66 | 1012.1 |
| 20260505200003 | 8 | 0 | 1.6 | 11.3 | 0.00 | 0.00 | 0.00 | 66 | 1012.1 |
| 20260505195217 | 8 | 329 | 1.6 | 16.1 | 0.00 | 0.00 | 0.00 | 67 | 1012.1 |
| 20260505194003 | 8 | 326 | 0.0 | 8.0 | 0.00 | 0.00 | 0.00 | 67 | 1012.0 |
| 20260505193003 | 8 | 0 | 0.0 | 0.0 | 0.00 | 0.00 | 0.00 | 66 | 1011.9 |
| 20260505192003 | 8 | 0 | 0.0 | 0.0 | 0.00 | 0.00 | 0.00 | 66 | 1011.9 |
| 20260505191003 | 9 | 353 | 0.0 | 9.7 | 0.00 | 0.00 | 0.00 | 64 | 1011.8 |
| 20260505190003 | 9 | 0 | 0.0 | 0.0 | 0.00 | 0.00 | 0.00 | 63 | 1011.8 |
| 20260505185003 | 9 | 0 | 0.0 | 0.0 | 0.00 | 0.00 | 0.00 | 63 | 1011.8 |
| 20260505184003 | 10 | 0 | 0.0 | 0.0 | 0.00 | 0.00 | 0.00 | 62 | 1011.7 |
| 20260505183003 | 10 | 0 | 0.0 | 0.0 | 0.00 | 0.00 | 0.00 | 62 | 1011.7 |
| 20260505182003 | 10 | 0 | 0.0 | 0.0 | 0.00 | 0.00 | 0.00 | 60 | 1011.7 |
| 20260505181003 | 10 | 348 | 9.7 | 9.7 | 0.00 | 0.00 | 0.00 | 56 | 1011.7 |
| 20260505180218 | 11 | 0 | 1.6 | 1.6 | 0.00 | 0.00 | 0.00 | 57 | 1011.8 |
| 20260505175003 | 11 | 345 | 1.6 | 8.0 | 0.00 | 0.00 | 0.00 | 58 | 1011.8 |
| 20260505174003 | 11 | 344 | 1.6 | 17.7 | 0.00 | 0.00 | 0.00 | 58 | 1011.8 |
| 20260505173003 | 11 | 334 | 3.2 | 12.9 | 0.00 | 0.00 | 0.00 | 58 | 1011.7 |
| 20260505172003 | 11 | 339 | 1.6 | 19.3 | 0.00 | 0.00 | 0.00 | 58 | 1011.8 |
| 20260505171003 | 11 | 304 | 0.0 | 16.1 | 0.00 | 0.00 | 0.00 | 58 | 1011.8 |
| 20260505170217 | 11 | 0 | 0.0 | 0.0 | 0.00 | 0.00 | 0.00 | 59 | 1011.8 |
| 20260505165003 | 11 | 338 | 0.0 | 12.9 | 0.00 | 0.00 | 0.00 | 59 | 1011.9 |
| 20260505164003 | 11 | 321 | 1.6 | 17.7 | 0.00 | 0.00 | 0.00 | 57 | 1011.9 |
| 20260505163003 | 11 | 334 | 3.2 | 12.9 | 0.00 | 0.00 | 0.00 | 55 | 1011.8 |
| 20260505162003 | 12 | 334 | 1.6 | 19.3 | 0.00 | 0.00 | 0.00 | 54 | 1011.8 |
| 20260505161003 | 12 | 337 | 1.6 | 17.7 | 0.00 | 0.00 | 0.00 | 54 | 1011.9 |
| 20260505153217 | 12 | 328 | 1.6 | 20.9 | 0.00 | 0.00 | 0.00 | 52 | 1011.9 |
| 20260505152217 | 13 | 338 | 1.6 | 9.7 | 0.00 | 0.00 | 0.00 | 54 | 1011.9 |
| 20260505151003 | 13 | 342 | 3.2 | 25.7 | 0.00 | 0.00 | 0.00 | 54 | 1011.9 |
| 20260505125003 | 15 | 344 | 4.8 | 19.3 | 0.00 | 0.00 | 0.00 | 52 | 1011.9 |
| 20260505124003 | 16 | 336 | 3.2 | 20.9 | 0.00 | 0.00 | 0.00 | 48 | 1011.8 |
| 20260505123003 | 16 | 328 | 4.8 | 20.9 | 0.00 | 0.00 | 0.00 | 51 | 1011.9 |
| 20260505122003 | 16 | 326 | 4.8 | 19.3 | 0.00 | 0.00 | 0.00 | 52 | 1012.0 |
| 20260505121003 | 16 | 328 | 3.2 | 17.7 | 0.00 | 0.00 | 0.00 | 52 | 1012.0 |
| 20260505120004 | 15 | 342 | 4.8 | 25.7 | 0.00 | 0.00 | 0.00 | 54 | 1011.9 |
| 20260505115003 | 15 | 327 | 3.2 | 19.3 | 0.00 | 0.00 | 0.00 | 53 | 1011.9 |
| 20260505114217 | 15 | 336 | 3.2 | 25.7 | 0.00 | 0.00 | 0.00 | 56 | 1011.9 |
| 20260505113003 | 15 | 331 | 4.8 | 19.3 | 0.00 | 0.00 | 0.00 | 57 | 1011.9 |
| 20260505112003 | 15 | 334 | 4.8 | 17.7 | 0.00 | 0.00 | 0.00 | 56 | 1012.0 |
| 20260505111003 | 15 | 335 | 3.2 | 20.9 | 0.00 | 0.00 | 0.00 | 56 | 1011.9 |
| 20260505102003 | 13 | 336 | 4.8 | 17.7 | 0.00 | 0.00 | 0.00 | 61 | 1011.8 |
| 20260505101003 | 13 | 324 | 3.2 | 17.7 | 0.00 | 0.00 | 0.00 | 62 | 1011.9 |
| 20260505100003 | 13 | 320 | 6.4 | 17.7 | 0.00 | 0.00 | 0.00 | 63 | 1011.9 |
| 20260505095217 | 13 | 326 | 6.4 | 20.9 | 0.00 | 0.00 | 0.00 | 63 | 1011.9 |
| 20260505094003 | 13 | 334 | 3.2 | 17.7 | 0.00 | 0.00 | 0.00 | 63 | 1011.8 |
| 20260505093003 | 13 | 334 | 4.8 | 19.3 | 0.00 | 0.00 | 0.00 | 65 | 1011.8 |
| 20260505092003 | 12 | 323 | 4.8 | 17.7 | 0.00 | 0.00 | 0.00 | 65 | 1011.9 |
| 20260505091003 | 12 | 328 | 4.8 | 19.3 | 0.00 | 0.00 | 0.00 | 66 | 1011.9 |
| 20260505090003 | 12 | 331 | 3.2 | 17.7 | 0.00 | 0.00 | 0.00 | 68 | 1011.8 |
| 20260505085003 | 12 | 329 | 3.2 | 20.9 | 0.00 | 0.00 | 0.00 | 69 | 1011.7 |
| 20260505084003 | 12 | 337 | 3.2 | 19.3 | 0.00 | 0.00 | 0.00 | 70 | 1011.7 |
| 20260505083003 | 11 | 334 | 4.8 | 20.9 | 0.00 | 0.00 | 0.00 | 70 | 1011.6 |
| 20260505082003 | 11 | 332 | 3.2 | 17.7 | 0.00 | 0.00 | 0.00 | 71 | 1011.6 |
| 20260505081003 | 11 | 330 | 4.8 | 17.7 | 0.00 | 0.00 | 0.00 | 72 | 1011.5 |
| 20260505080218 | 11 | 331 | 4.8 | 16.1 | 0.00 | 0.00 | 0.00 | 73 | 1011.5 |
| 20260505075003 | 11 | 330 | 3.2 | 17.7 | 0.00 | 0.00 | 0.00 | 76 | 1011.4 |
| 20260505074003 | 11 | 340 | 4.8 | 25.7 | 0.00 | 0.00 | 0.00 | 77 | 1011.4 |
| 20260505073003 | 11 | 330 | 3.2 | 16.1 | 0.00 | 0.00 | 0.00 | 78 | 1011.4 |
| 20260505072003 | 10 | 339 | 3.2 | 16.1 | 0.00 | 0.00 | 0.00 | 78 | 1011.3 |
| 20260505071003 | 10 | 334 | 1.6 | 12.9 | 0.00 | 0.00 | 0.00 | 79 | 1011.2 |
| 20260505070218 | 10 | 348 | 4.8 | 17.7 | 0.00 | 0.00 | 0.00 | 78 | 1011.2 |
| 20260505065003 | 11 | 338 | 3.2 | 20.9 | 0.00 | 0.00 | 0.00 | 78 | 1011.2 |
| 20260505064003 | 11 | 333 | 3.2 | 17.7 | 0.00 | 0.00 | 0.00 | 79 | 1011.1 |
| 20260505063003 | 11 | 351 | 0.0 | 22.5 | 0.00 | 0.00 | 0.00 | 80 | 1011.1 |
| 20260505062003 | 10 | 337 | 1.6 | 9.7 | 0.00 | 0.03 | 0.00 | 81 | 1011.0 |
| 20260505061217 | 10 | 336 | 1.6 | 9.7 | 0.00 | 0.03 | 0.00 | 81 | 1011.1 |
| 20260505060003 | 10 | 333 | 1.6 | 17.7 | 0.00 | 0.03 | 0.00 | 82 | 1011.1 |
| 20260505055217 | 10 | 330 | 1.6 | 17.7 | 0.00 | 0.03 | 0.00 | 82 | 1011.1 |
| 20260505054003 | 10 | 342 | 1.6 | 16.1 | 0.00 | 0.03 | 0.00 | 83 | 1011.1 |
| 20260505053217 | 10 | 337 | 1.6 | 11.3 | 0.00 | 0.03 | 0.00 | 83 | 1011.0 |
| 20260505052003 | 9 | 338 | 3.2 | 17.7 | 0.00 | 0.03 | 0.00 | 83 | 1011.0 |
| 20260505051003 | 9 | 344 | 1.6 | 17.7 | 0.00 | 0.03 | 0.00 | 83 | 1011.0 |
| 20260505041003 | 8 | 350 | 1.6 | 19.3 | 0.00 | 0.05 | 0.00 | 82 | 1010.8 |
| 20260505040217 | 8 | 353 | 1.6 | 20.9 | 0.00 | 0.05 | 0.00 | 82 | 1010.7 |
| 20260505035003 | 8 | 345 | 1.6 | 17.7 | 0.00 | 0.10 | 0.00 | 82 | 1010.7 |
| 20260505034003 | 8 | 314 | 1.6 | 8.0 | 0.00 | 0.10 | 0.00 | 82 | 1010.8 |
| 20260505033216 | 8 | 330 | 0.0 | 19.3 | 0.00 | 0.10 | 0.00 | 82 | 1010.8 |
| 20260505032003 | 8 | 282 | 1.6 | 12.9 | 0.00 | 0.13 | 0.00 | 82 | 1010.8 |
| 20260505031003 | 8 | 342 | 1.6 | 11.3 | 0.00 | 0.15 | 0.00 | 83 | 1010.8 |
| 20260505030003 | 8 | 346 | 1.6 | 8.0 | 0.00 | 0.15 | 0.00 | 82 | 1010.7 |